Location: Evensen
(52.5775°N, 9.5258°E)
Time: 05:32:49
(UTC+00:00)

Cosmos 2237 Rocket - Pass Details

Date: 15 May 2026
Orbit: 833 x 849 km, 71.0° (Epoch: 6 June)

Event Time Altitude Azimuth Distance (km) Brightness Sun altitude
Rises 22:35:34 0° 328° (NNW) 3,422 6.7 -17.8°
Reaches altitude 10° 22:38:02 10° 331° (NNW) 2,481 5.7 -17.8°
Maximum altitude 22:43:45 76° 57° (ENE) 873 2.3 -18.0°
Enters shadow 22:47:04 26° 140° (SE) 1,611 3.2 -18.1°
